This is the latest recevied weather packets stored in our database for station/object OM4MO-10. If no packets are shown the sender has not sent any weather packets the latest 10 day(s).
| Time | Temp. | Humidity | Pressure | Rain* | Wind** | Luminosity | Snow |
|---|---|---|---|---|---|---|---|
| 1777679458 | 4.44° C | 100% | 1026.1 hPa | - | - | - | - |
| 1777678258 | 4.44° C | 100% | 1026.1 hPa | - | - | - | - |
| 1777677058 | 5° C | 100% | 1026.1 hPa | - | - | - | - |
| 1777675858 | 5.56° C | 100% | 1026.1 hPa | - | - | - | - |
| 1777674659 | 6.11° C | 100% | 1026.1 hPa | - | - | - | - |
| 1777673458 | 7.22° C | 100% | 1026.1 hPa | - | - | - | - |
| 1777672258 | 6.11° C | 100% | 1026.1 hPa | - | - | - | - |
| 1777671058 | 6.67° C | 100% | 1026.1 hPa | - | - | - | - |
| 1777669857 | 6.67° C | 100% | 1026 hPa | - | - | - | - |
| 1777668657 | 7.22° C | 100% | 1026 hPa | - | - | - | - |
| 1777667457 | 7.22° C | 100% | 1026 hPa | - | - | - | - |
| 1777666257 | 8.33° C | 100% | 1025.9 hPa | - | - | - | - |
| 1777665057 | 8.33° C | 100% | 1025.9 hPa | - | - | - | - |
| 1777663857 | 10° C | 100% | 1025.8 hPa | - | - | - | - |
| 1777662657 | 10° C | 100% | 1025.7 hPa | - | - | - | - |
| 1777661457 | 10° C | 100% | 1025.5 hPa | - | - | - | - |
| 1777660256 | 11.11° C | 98% | 1025.5 hPa | - | - | - | - |
| 1777659056 | 11.67° C | 96% | 1025.3 hPa | - | - | - | - |
| 1777657857 | 12.78° C | 89% | 1018.8 hPa | - | - | - | - |
| 1777656656 | 13.89° C | 76% | 1020.8 hPa | - | - | - | - |
| 1777655456 | 14.44° C | 66% | 1023.2 hPa | - | - | - | - |
| 1777654256 | 15° C | 59% | 1024.9 hPa | - | - | - | - |
| 1777653056 | 16.11° C | 50% | 1029 hPa | - | - | - | - |
| 1777651856 | 16.67° C | 44% | 1031.7 hPa | - | - | - | - |
| 1777650656 | 16.11° C | 45% | 1031.5 hPa | - | - | - | - |
* Rain since midnight (hover to see other rain measurements)
** Current wind speed in m/s (hover to see current wind gust speed)